When you browse on this site, cookies collect data to enhance your experience and personalize the content and advertising you see.
Visit our Privacy Policy to learn more. By continuing to use the site, you agree to this use of cookies and data.
  • In Hungary
  • List of Countries
  • For 7 days
  • Water Temperature
  • Satellite Maps
  • Weather Map
  • News
  • Weather Widgets
  • user-avatar
    Login

    Hourly Weather Cam Ranh

    Today, 24 January, Thursday

    Time Temperature Precipitation Wind Pressure Humidity
    00:00 +20°C° 0 mm 8 mps 756 mmHg 89%
    01:00 +20°C° 0 mm 7 mps 756 mmHg 90%
    02:00 +20°C° 0 mm 7 mps 756 mmHg 90%
    03:00 +20°C° 0 mm 7 mps 756 mmHg 89%
    04:00 +20°C° 0 mm 7 mps 756 mmHg 89%
    05:00 +20°C° 0 mm 7 mps 756 mmHg 87%
    06:00 +20°C° 0 mm 7 mps 756 mmHg 86%
    07:00 +21°C° 0 mm 7 mps 757 mmHg 81%
    08:00 +23°C° 0 mm 8 mps 757 mmHg 74%
    09:00 +26°C° 0 mm 8 mps 757 mmHg 67%
    10:00 +28°C° 0 mm 8 mps 757 mmHg 59%
    11:00 +28°C° 0 mm 8 mps 757 mmHg 57%
    12:00 +29°C° 0 mm 8 mps 756 mmHg 56%
    13:00 +29°C° 0 mm 8 mps 756 mmHg 54%
    14:00 +29°C° 0 mm 8 mps 755 mmHg 57%
    15:00 +28°C° 0 mm 8 mps 755 mmHg 60%
    16:00 +28°C° 0 mm 8 mps 755 mmHg 63%
    17:00 +26°C° 0 mm 8 mps 755 mmHg 70%
    18:00 +23°C° 0 mm 8 mps 755 mmHg 78%
    19:00 +22°C° 0 mm 8 mps 755 mmHg 85%
    20:00 +21°C° 0 mm 8 mps 756 mmHg 87%
    21:00 +21°C° 0 mm 7 mps 756 mmHg 90%
    22:00 +20°C° 0 mm 7 mps 757 mmHg 92%
    23:00 +20°C° 0 mm 7 mps 756 mmHg 92%

    Tomorrow, 25 January, Friday

    Time Temperature Precipitation Wind Pressure Humidity
    00:00 +20°C° 0 mm 7 mps 756 mmHg 91%
    01:00 +19°C° 0 mm 6 mps 756 mmHg 91%
    02:00 +19°C° 0 mm 6 mps 756 mmHg 90%
    03:00 +19°C° 0 mm 6 mps 756 mmHg 88%
    04:00 +19°C° 0 mm 6 mps 755 mmHg 86%
    05:00 +19°C° 0 mm 6 mps 756 mmHg 83%
    06:00 +20°C° 0 mm 5 mps 756 mmHg 80%
    07:00 +20°C° 0 mm 5 mps 756 mmHg 77%
    08:00 +23°C° 0 mm 5 mps 757 mmHg 69%
    09:00 +26°C° 0 mm 6 mps 757 mmHg 60%
    10:00 +29°C° 0 mm 6 mps 757 mmHg 52%
    11:00 +30°C° 0 mm 6 mps 756 mmHg 52%
    12:00 +32°C° 0 mm 7 mps 756 mmHg 51%
    13:00 +32°C° 0 mm 7 mps 755 mmHg 50%
    14:00 +32°C° 0 mm 7 mps 755 mmHg 55%
    15:00 +31°C° 0 mm 8 mps 754 mmHg 59%
    16:00 +29°C° 0 mm 8 mps 754 mmHg 63%
    17:00 +27°C° 0 mm 8 mps 755 mmHg 71%
    18:00 +26°C° 0 mm 8 mps 755 mmHg 79%
    19:00 +23°C° 0 mm 8 mps 756 mmHg 87%
    20:00 +23°C° 0 mm 8 mps 756 mmHg 87%
    21:00 +23°C° 0 mm 8 mps 757 mmHg 87%
    22:00 +23°C° 0 mm 8 mps 757 mmHg 88%
    23:00 +23°C° 0 mm 8 mps 757 mmHg 86%

    Day after tomorrow, 26 January, Saturday

    Time Temperature Precipitation Wind Pressure Humidity
    00:00 +23°C° 0 mm 8 mps 757 mmHg 85%
    01:00 +23°C° 0 mm 7 mps 756 mmHg 83%
    02:00 +23°C° 0 mm 8 mps 756 mmHg 83%
    03:00 +23°C° 0 mm 8 mps 756 mmHg 84%
    04:00 +23°C° 0 mm 8 mps 755 mmHg 84%
    05:00 +23°C° 0.1 mm 8 mps 756 mmHg 84%
    06:00 +23°C° 0.1 mm 8 mps 756 mmHg 85%
    07:00 +24°C° 0.1 mm 9 mps 757 mmHg 85%
    08:00 +26°C° 0.2 mm 9 mps 757 mmHg 78%
    09:00 +28°C° 0.2 mm 9 mps 757 mmHg 72%
    10:00 +29°C° 0.2 mm 9 mps 758 mmHg 65%
    11:00 +31°C° 0.1 mm 9 mps 757 mmHg 63%
    12:00 +31°C° 0.1 mm 10 mps 756 mmHg 61%
    13:00 +32°C° 0.1 mm 10 mps 755 mmHg 59%
    14:00 +31°C° 0.1 mm 10 mps 755 mmHg 61%
    15:00 +29°C° 0.1 mm 10 mps 755 mmHg 64%
    16:00 +28°C° 0.1 mm 9 mps 754 mmHg 66%
    17:00 +27°C° 0.1 mm 9 mps 755 mmHg 72%
    18:00 +26°C° 0.1 mm 9 mps 756 mmHg 78%
    19:00 +24°C° 0.1 mm 9 mps 756 mmHg 84%
    20:00 +23°C° 0.2 mm 8 mps 757 mmHg 85%
    21:00 +23°C° 0.2 mm 8 mps 757 mmHg 87%
    22:00 +23°C° 0.2 mm 8 mps 758 mmHg 89%
    23:00 +23°C° 0.4 mm 8 mps 757 mmHg 90%

    27 January, Sunday

    Time Temperature Precipitation Wind Pressure Humidity
    00:00 +23°C° 0.4 mm 9 mps 757 mmHg 91%
    01:00 +23°C° 0.4 mm 9 mps 757 mmHg 92%
    02:00 +23°C° 0.3 mm 9 mps 756 mmHg 92%
    03:00 +23°C° 0.3 mm 9 mps 756 mmHg 92%
    04:00 +22°C° 0.3 mm 9 mps 756 mmHg 92%
    05:00 +22°C° 0.1 mm 9 mps 756 mmHg 90%
    06:00 +22°C° 0.1 mm 9 mps 757 mmHg 89%
    07:00 +22°C° 0.1 mm 9 mps 757 mmHg 88%
    08:00 +24°C° 0 mm 9 mps 758 mmHg 78%
    09:00 +26°C° 0 mm 9 mps 758 mmHg 69%
    10:00 +28°C° 0 mm 9 mps 758 mmHg 59%
    11:00 +29°C° 0 mm 9 mps 757 mmHg 57%
    12:00 +31°C° 0 mm 9 mps 756 mmHg 54%
    13:00 +32°C° 0 mm 9 mps 756 mmHg 52%
    14:00 +31°C° 0 mm 9 mps 755 mmHg 55%
    15:00 +31°C° 0 mm 9 mps 755 mmHg 58%
    16:00 +29°C° 0 mm 9 mps 754 mmHg 62%
    17:00 +28°C° 0 mm 8 mps 755 mmHg 70%
    18:00 +26°C° 0 mm 8 mps 755 mmHg 78%
    19:00 +24°C° 0 mm 7 mps 756 mmHg 86%
    20:00 +23°C° 0.1 mm 7 mps 757 mmHg 87%
    21:00 +23°C° 0.1 mm 7 mps 757 mmHg 88%
    22:00 +23°C° 0.1 mm 7 mps 757 mmHg 89%
    23:00 +23°C° 0.1 mm 7 mps 757 mmHg 90%

    28 January, Monday

    Time Temperature Precipitation Wind Pressure Humidity
    00:00 +23°C° 0.1 mm 7 mps 756 mmHg 90%
    01:00 +22°C° 0.1 mm 7 mps 756 mmHg 91%
    02:00 +22°C° 0.1 mm 7 mps 756 mmHg 91%
    03:00 +22°C° 0.1 mm 7 mps 755 mmHg 91%
    04:00 +22°C° 0.1 mm 7 mps 755 mmHg 91%
    05:00 +23°C° 0.1 mm 7 mps 755 mmHg 90%
    06:00 +23°C° 0.1 mm 7 mps 756 mmHg 89%
    07:00 +23°C° 0.1 mm 7 mps 756 mmHg 87%
    08:00 +26°C° 0.1 mm 8 mps 756 mmHg 79%
    09:00 +28°C° 0.1 mm 8 mps 757 mmHg 70%
    10:00 +31°C° 0.1 mm 8 mps 757 mmHg 62%
    11:00 +31°C° 0.1 mm 8 mps 756 mmHg 61%
    12:00 +31°C° 0.1 mm 8 mps 756 mmHg 60%
    13:00 +32°C° 0.1 mm 9 mps 755 mmHg 59%
    14:00 +31°C° 0 mm 9 mps 754 mmHg 61%
    15:00 +29°C° 0 mm 9 mps 754 mmHg 64%
    16:00 +29°C° 0 mm 9 mps 754 mmHg 67%
    17:00 +27°C° 0 mm 9 mps 754 mmHg 73%
    18:00 +26°C° 0 mm 8 mps 755 mmHg 79%
    19:00 +24°C° 0 mm 8 mps 756 mmHg 85%
    20:00 +24°C° 0 mm 8 mps 756 mmHg 86%
    21:00 +23°C° 0 mm 8 mps 756 mmHg 87%
    22:00 +23°C° 0 mm 8 mps 757 mmHg 88%
    23:00 +23°C° 0 mm 8 mps 756 mmHg 88%

    29 January, Tuesday

    Time Temperature Precipitation Wind Pressure Humidity
    00:00 +22°C° 0 mm 7 mps 756 mmHg 89%
    01:00 +22°C° 0 mm 7 mps 756 mmHg 89%
    02:00 +22°C° 0 mm 7 mps 755 mmHg 89%
    03:00 +22°C° 0 mm 7 mps 755 mmHg 89%
    04:00 +22°C° 0 mm 7 mps 755 mmHg 89%
    05:00 +22°C° 0 mm 7 mps 755 mmHg 87%
    06:00 +22°C° 0 mm 7 mps 755 mmHg 86%
    07:00 +22°C° 0 mm 7 mps 756 mmHg 85%
    08:00 +24°C° 0 mm 7 mps 756 mmHg 76%
    09:00 +27°C° 0 mm 7 mps 756 mmHg 67%
    10:00 +29°C° 0 mm 7 mps 756 mmHg 59%
    11:00 +31°C° 0 mm 8 mps 756 mmHg 56%
    12:00 +32°C° 0 mm 8 mps 755 mmHg 54%
    13:00 +32°C° 0 mm 8 mps 754 mmHg 51%
    14:00 +32°C° 0 mm 8 mps 754 mmHg 55%
    15:00 +31°C° 0 mm 8 mps 753 mmHg 58%
    16:00 +29°C° 0 mm 8 mps 753 mmHg 61%
    17:00 +28°C° 0 mm 8 mps 754 mmHg 69%
    18:00 +26°C° 0 mm 8 mps 754 mmHg 78%
    19:00 +24°C° 0 mm 8 mps 755 mmHg 86%
    20:00 +24°C° 0.1 mm 8 mps 755 mmHg 87%
    21:00 +23°C° 0.1 mm 7 mps 756 mmHg 88%
    22:00 +23°C° 0.1 mm 7 mps 756 mmHg 88%
    23:00 +23°C° 0.1 mm 7 mps 756 mmHg 88%
    Show more